Regional Weather Roundup
Issued by NWS

Home | Current Version | Previous Version | Graphics & Text | Print | Product List | Glossary Off
Versions: 1 2 3 4 5 6 7 8 9 10 11 12 13 14 15 16 17 18 19 20 21 22 23 24 25 26 27 28 29 30 31 32 33 34 35 36 37 38 39 40 41 42 43 44 45 46 47 48 49 50

000
ASUS43 KMPX 231601
RWRMN
WEATHER ROUNDUP FOR MINNESOTA
NATIONAL WEATHER SERVICE TWIN CITIES/CHANHASSEN MN
1100 AM CDT SAT JUL 23 2016


NOTE: "FAIR" INDICATES FEW OR NO CLOUDS BELOW 12,000 FEET WITH NO
SIGNIFICANT WEATHER AND/OR OBSTRUCTIONS TO VISIBILITY. N/A MEANS
CURRENT SKY AND/OR WEATHER CONDITIONS ARE NOT AVAILABLE.

MNZ060>063-068>070-231700-
   Twin Cities Metro

CITY           SKY/WX    TMP DP  RH WIND       PRES   REMARKS
TWIN CITIES    TSTM      72  68  87 SW12G26   29.86S VSB 1
ST PAUL        TSTM      78  73  84 S21       29.92R
CRYSTAL        CLOUDY    79  69  71 SE16G26   29.86R
BLAINE         CLOUDY    81  70  69 SE9G16    29.86F
LAKEVILLE      TSTM      70  70 100 W5        29.87F
EDEN PRAIRIE   TSTM      72  69  90 S9        29.90R FOG
LAKEVILLE      TSTM      70  70 100 W5        29.87F
SOUTH ST PAUL  TSTM      76  71  84 S13G20    29.92R
LAKE ELMO      FAIR      77  70  78 E13       29.92R THUNDER
$$
MNZ001>005-007-008-013>017-022>024-027-028-231700-
   Northwest Minnesota

CITY           SKY/WX    TMP DP  RH WIND       PRES   REMARKS
BEMIDJI        CLOUDY    75  63  64 E12       29.85F
HALLOCK        CLOUDY    66  64  94 N12       29.85R
ROSEAU         CLOUDY    70  64  83 E5        29.85F
WARROAD        CLOUDY    72  64  78 E8        29.87F
THIEF RVR FALL CLOUDY    76  64  66 SE12      29.82F
CROOKSTON      CLOUDY    79  64  61 SE8       29.79F
FOSSTON        CLOUDY    75  63  64 SE8       29.81F
DETROIT LAKES  CLOUDY    77  63  61 SE18      29.78F
MOORHEAD       CLOUDY    81  68  65 SE12G17   29.73F
PARK RAPIDS    CLOUDY    77  63  61 E8        29.83F
MAHNOMEN       FAIR      77  64  65 SE14      29.79F
$$
MNZ006-009>011-018-025>026-231700-
   North Central Minnesota

CITY           SKY/WX    TMP DP  RH WIND       PRES   REMARKS
BAUDETTE       PTSUNNY   70  62  76 E9        29.87F
FLAG ISLAND    DRIZZLE   70  61  73 SE5       29.88F
INTL FALLS     CLOUDY    72  62  71 SE6       29.91F
WASKISH        CLOUDY    75  64  69 E10       29.86F
BIG FORK       CLOUDY    72  63  73 E5        29.89F
LONGVILLE      CLOUDY    75  64  69 E3        29.84F
GRAND RAPIDS   CLOUDY    79  65  62 VRB3      29.88F
CRANE LAKE     CLOUDY    73  64  73 CALM      29.93F
ORR            CLOUDY    79  61  53 CALM      29.89F
COOK           CLOUDY    79  63  57 E7        29.91F
WALKER         FAIR      74  62  66 E5        29.85F
$$
MNZ012-019>021-037-231700-
   Northeast Minnesota

CITY           SKY/WX    TMP DP  RH WIND       PRES   REMARKS
DULUTH         CLOUDY    78  61  55 SE14      29.92F
ELY            SUNNY     79  57  47 SE12      29.94F
HIBBING        CLOUDY    79  59  50 SE16      29.89F
EVELETH        MOSUNNY   78  56  46 SE10G16   29.92F
DULUTH HARBOR  CLOUDY    72  64  78 NE15      29.91F
TWO HARBORS    MOSUNNY   81  64  57 E10       29.92F
SILVER BAY     SUNNY     79  61  53 E10       29.92F
GRAND MARAIS     N/A     65  54  67 NE10      29.97F
G MARAIS ARPRT SUNNY     72  55  56 SE7       30.02F
$$
MNZ029>031-032-039>041-046>048-054>057-064-231700-
   West Central Minnesota

CITY           SKY/WX    TMP DP  RH WIND       PRES   REMARKS
FERGUS FALLS   CLOUDY    75  66  73 SE9       29.74F
WHEATON        CLOUDY    72  70  94 SE10      29.74F
MORRIS         LGT RAIN  70  68  94 NE5       29.75F
ALEXANDRIA     CLOUDY    70  67  90 E8        29.81F
ELBOW LAKE     FAIR      70  67  90 SE9       29.74F
WADENA         CLOUDY    73  64  73 SE10      29.80F
GLENWOOD       TSTM      68  66  94 SE7       29.78F
APPLETON       LGT RAIN  72  66  83 SE5       29.75R
BENSON         CLOUDY    70  66  88 SE12G17   29.78S
ORTONVILLE     RAIN      70  66  88 CALM      29.72F
MADISON        LGT RAIN  70  68  94 SE5       29.75F
WILLMAR        PTSUNNY   70  70 100 E10       29.84F
$$
MNZ033>034-036-042>043-049>051-058-059-231700-
   Central Minnesota

CITY           SKY/WX    TMP DP  RH WIND       PRES   REMARKS
ST CLOUD       CLOUDY    74  71  91 E3        29.85R
SAUK CENTRE    PTSUNNY   69  67  95 E10       29.84F
PAYNESVILLE    TSTM      69  69 100 S12       29.88S
AITKIN         CLOUDY    79  63  57 SE8       29.84F
PINE RIVER     PTSUNNY   75  64  69 SE7       29.87F
BRAINERD       CLOUDY    75  65  70 SE8       29.86R
STAPLES        CLOUDY    73  63  68 SE10G16   29.84F
LONG PRAIRIE   PTSUNNY   68  66  94 E5        29.83F
LITTLE FALLS   CLOUDY    73  64  73 S8        29.88R THUNDER
LITCHFIELD     TSTM      72  72 100 NW13G24   29.88F
BUFFALO        CLOUDY    78  73  84 E8        29.86R THUNDER
MAPLE LAKE     CLOUDY    79  76  90 SE5       29.86R THUNDER
HUTCHINSON     TSTM      71  70  97 W9        29.89R VSB 3/4
$$
MNZ037-044-045-052-053-231700-
   East Central Minnesota

CITY           SKY/WX    TMP DP  RH WIND       PRES   REMARKS
PRINCETON      CLOUDY    77  70  78 SE8       29.87S
MORA           CLOUDY    75  66  73 E6        29.89S
CAMBRIDGE      CLOUDY    81  66  61 SE7       29.86S
RUSH CITY      CLOUDY    77  69  75 E5        29.89S
MOOSE LAKE     CLOUDY    79  64  61 CALM      29.86F
HINCKLEY       FAIR      79  70  73 SE6       29.90R
CLOQUET        CLOUDY    77  57  50 E10G16    29.90F
MCGREGOR       CLOUDY    79  63  57 E8G17     29.86F
$$
MNZ071>073-080-081-089-090-097-098-231700-
   Southwest Minnesota

CITY           SKY/WX    TMP DP  RH WIND       PRES   REMARKS
MONTEVIDEO     DRIZZLE   70  70 100 S10       29.79F
GRANITE FALLS  CLOUDY    72  71  96 NE6       29.79F
CANBY          CLOUDY    70  68  94 CALM      29.74F
MARSHALL       CLOUDY    71  70  96 S15       29.76F
REDWOOD FALLS  CLOUDY    71  69  93 NE8       29.81F
OLIVIA         CLOUDY    70  68  94 NE3       29.82F
PIPESTONE      PTSUNNY   77  72  83 SE9       29.83S
WINDOM         LGT RAIN  77  73  88 SE13      29.82F
WORTHINGTON    CLOUDY    78  75  90 S12       29.84F
JACKSON        CLOUDY    77  70  78 S8        29.86S
TRACY          CLOUDY    75  74  97 SE3       29.80F
SLAYTON        LGT RAIN  74  73  96 SW3       29.83F
$$
MNZ065>067-074>077-082>085-091>093-231700-
   South Central Minnesota

CITY           SKY/WX    TMP DP  RH WIND       PRES   REMARKS
MANKATO        CLOUDY    73  70  88 SE12      29.86F
NEW ULM        LGT RAIN  75  73  94 SE14      29.82F
ST JAMES       LGT RAIN  72  70  94 SE9       29.84F
FAIRMONT       CLOUDY    73  50  43 S8        29.86S
GLENCOE        CLOUDY    73  73  98 SE7       29.84F
FARIBAULT      CLOUDY    72  72 100 CALM      29.89F
OWATONNA       CLOUDY    73  70  88 E5        29.90F
WASECA         CLOUDY    72  70  94 SE9       29.84F
ALBERT LEA     LGT RAIN  73  73 100 SE10      29.89F
$$
MNZ078>079-086>088-094>096-231700-
   Southeast Minnesota

CITY           SKY/WX    TMP DP  RH WIND       PRES   REMARKS
ROCHESTER      TSTM      71  70  96 E14       30.00R
RED WING       TSTM      73  70  88 SE8       29.98R
STANTON        CLOUDY    72  70  94 SE5       29.90R
DODGE CENTER   RAIN     N/A N/A N/A E10       29.95R
WINONA         TSTM      73  70  88 W3        30.00R
AUSTIN         CLOUDY    73  72  94 SE8       29.91F
PRESTON        RAIN      70  66  87 E8        30.00R
$$
ABBREVIATIONS USED IN REMARKS
   TC - TEMPERATURES IN CELSIUS
  WCI - WIND CHILL INDEX
   HX - HEAT INDEX
  VSB - VISIBILITY
$$




USA.gov is the U.S. government's official web portal to all federal, state and local government web resources and services.